Simultaneous Nadir Overpasses (SNOs) Predictions

Prediction of SNOs between LANDSAT-8 and METOP-B Satellite Orbit:

Table of predicted SNOs for the next 14.0 days since TLE Epoch: 3/24/2018
Index Date (LANDSAT-8) Time (LANDSAT-8) Lat,Lon (LANDSAT-8) SZA (LANDSAT-8 ) Date (METOP-B) Time (METOP-B) Lat,Lon (METOP-B) SZA (METOP-B ) Distance(km) Time Diff (sec)
1 03/24/2018 14:06:28 -81.14,-171.99 98.55 03/24/2018 14:06:05 -81.14,-172.18 98.58 3.26 23
2 03/24/2018 14:55:53 81.17, -3.88 81.51 03/24/2018 14:56:44 81.16, -4.05 81.51 2.93 51
3 03/27/2018 09:40:41 -81.14,-105.52 99.62 03/27/2018 09:40:25 -81.14,-105.58 99.64 1.12 16
4 03/27/2018 10:30:06 81.17, 62.56 80.43 03/27/2018 10:31:04 81.17, 62.51 80.45 0.82 58
5 03/30/2018 05:14:55 -81.14, -39.08 100.70 03/30/2018 05:14:46 -81.15, -39.00 100.69 1.53 9
6 03/30/2018 06:04:20 81.17, 128.98 79.36 03/30/2018 06:05:25 81.17, 129.07 79.40 1.63 65
7 04/02/2018 00:00:00 80.66,-146.55 77.28 04/01/2018 23:58:46 80.83,-146.98 77.37 20.72 74
8 04/02/2018 00:49:09 -81.14, 27.33 101.76 04/02/2018 00:49:08 -81.14, 27.20 101.78 2.23 1
9 04/02/2018 01:38:34 81.17,-164.64 78.29 04/02/2018 01:39:47 81.16,-164.77 78.30 2.27 73
10 04/04/2018 19:33:55 81.14, -73.94 77.19 04/04/2018 19:32:48 81.14, -73.87 77.17 1.26 67




NCC Satellite Simultaneous Nadir Overpasses (SNOs) Prediction Service
